User: anonymous   Login
Location: Unspecified
(0.0000°N, 0.0000°E)
Time: 09:41:12
(UTC+00:00)
Language:

NAVSTAR 65 (USA 213) - Orbit

View from above orbital plane
View from above orbital plane
View from above satellite
View from above satellite

Ground track
Ground track

The orbit data is extracted from the following two-line orbital elements,

1 36585U 10022A   15145.41638983 -.00000092  00000-0  00000+0 0  9991
2 36585 056.0498 010.4706 0044692 039.2976 279.0110 02.00563675 36553
Epoch (UTC): 25 May 2015 09:59:36
Eccentricity: 0.0044692
inclination: 56.0498°
perigee height: 20063 km
apogee height: 20301 km
right ascension of ascending node: 10.4706°
argument of perigee: 39.2976°
revolutions per day: 2.00563675
mean anomaly at epoch: 279.0110°
orbit number at epoch: 3655

The dashed part of the orbit path shows where the satellite is in the earth's shadow,  

DLR